EW3497 Weather Reports


Display with metric or nautical units.
time (UTC)temp
F
wind
direction
speed
MPH
gust
MPH
rain 1hr
in
rain 24hr
in
rain mn
in
humidity
%
barometer
mb
20260507202704 72 348 11.0 25.0 0.00 0.00 0.00 32 1013.9
20260507201804 72 340 10.0 21.0 0.00 0.00 0.00 32 1014.1
20260507200904 72 340 12.0 21.0 0.00 0.00 0.00 32 1014.1
20260507200025 72 346 11.0 21.0 0.00 0.00 0.00 31 1014.2
20260507195426 71 337 11.0 19.0 0.00 0.00 0.00 33 1014.1
20260507194504 70 350 10.0 22.0 0.00 0.00 0.00 33 1014.3
20260507193604 70 338 10.0 20.0 0.00 0.00 0.00 35 1014.4
20260507192704 69 356 11.0 20.0 0.00 0.00 0.00 36 1014.5
20260507191804 69 17 9.0 21.0 0.00 0.00 0.00 35 1014.8
20260507190904 69 26 8.0 16.0 0.00 0.00 0.00 36 1014.9
20260507190005 70 18 7.0 16.0 0.00 0.00 0.00 36 1014.9
20260507185425 70 16 8.0 19.0 0.00 0.00 0.00 38 1014.9
20260507184504 70 5 8.0 18.0 0.00 0.00 0.00 38 1015.0
20260507183604 69 2 7.0 16.0 0.00 0.00 0.00 39 1015.0
20260507182725 68 1 8.0 19.0 0.00 0.00 0.00 42 1015.1
20260507181804 67 346 8.0 16.0 0.00 0.00 0.00 43 1015.2
20260507180904 67 7 8.0 19.0 0.00 0.00 0.00 43 1015.2
20260507180004 66 357 9.0 21.0 0.00 0.00 0.00 47 1015.3
20260507175426 66 356 10.0 21.0 0.00 0.00 0.00 46 1015.4
20260507174525 65 357 10.0 21.0 0.00 0.00 0.00 47 1015.4
20260507173625 64 344 11.0 22.0 0.00 0.00 0.00 48 1015.5
20260507172704 64 354 11.0 21.0 0.00 0.00 0.00 49 1015.7
20260507171804 64 356 10.0 16.0 0.00 0.00 0.00 51 1015.8
20260507170904 64 346 10.0 22.0 0.00 0.00 0.00 51 1015.9
20260507170004 63 349 9.0 19.0 0.00 0.00 0.00 53 1015.9
20260507165404 63 349 9.0 18.0 0.00 0.00 0.00 53 1016.0
20260507164504 63 351 6.0 14.0 0.00 0.00 0.00 55 1016.0
20260507163604 63 343 7.0 20.0 0.00 0.00 0.00 56 1016.0
20260507162704 62 341 7.0 14.0 0.00 0.00 0.00 57 1016.0
20260507161825 61 336 7.0 14.0 0.00 0.00 0.00 58 1016.0
20260507160904 61 312 6.0 15.0 0.00 0.00 0.00 59 1016.2
20260507160007 61 308 7.0 14.0 0.00 0.00 0.00 60 1016.3
20260507155404 60 319 6.0 14.0 0.00 0.00 0.00 61 1016.4
20260507154504 60 318 7.0 14.0 0.00 0.00 0.00 61 1016.5
20260507153608 60 307 6.0 15.0 0.00 0.00 0.00 60 1016.6
20260507152704 60 302 5.0 15.0 0.00 0.00 0.00 62 1016.7
20260507151804 60 300 6.0 14.0 0.00 0.00 0.00 62 1016.8
20260507150904 60 288 7.0 14.0 0.00 0.00 0.00 63 1016.7
20260507150025 59 306 5.0 12.0 0.00 0.00 0.00 65 1016.7
20260507145404 59 295 6.0 12.0 0.00 0.00 0.00 65 1016.7
20260507144504 58 301 7.0 15.0 0.00 0.00 0.00 67 1016.7
20260507143604 58 306 8.0 15.0 0.00 0.00 0.00 67 1016.6
20260507142704 57 326 7.0 16.0 0.00 0.00 0.00 69 1016.6
20260507141804 57 343 7.0 16.0 0.00 0.00 0.00 69 1016.6
20260507140904 57 345 7.0 15.0 0.00 0.00 0.00 70 1016.6
20260507140025 56 353 8.0 14.0 0.00 0.00 0.00 71 1016.6
20260507135404 56 351 7.0 12.0 0.00 0.00 0.00 71 1016.6
20260507134504 56 345 7.0 14.0 0.00 0.00 0.00 72 1016.6
20260507133604 56 341 6.0 14.0 0.00 0.00 0.00 73 1016.6
20260507132704 56 359 4.0 11.0 0.00 0.00 0.00 73 1016.6
20260507131804 55 11 3.0 9.0 0.00 0.00 0.00 73 1016.6
20260507130925 55 45 2.0 9.0 0.00 0.00 0.00 73 1016.5
20260507130004 55 68 2.0 9.0 0.00 0.00 0.00 74 1016.5
20260507125404 55 82 1.0 5.0 0.00 0.00 0.00 74 1016.4
20260507124504 55 63 1.0 5.0 0.00 0.00 0.00 73 1016.3
20260507123604 55 45 4.0 12.0 0.00 0.00 0.00 73 1016.4
20260507122705 55 49 2.0 5.0 0.00 0.00 0.00 74 1016.3
20260507121804 56 49 3.0 8.0 0.00 0.00 0.00 73 1016.3
20260507120904 56 34 2.0 9.0 0.00 0.00 0.00 73 1016.3
20260507120005 56 353 1.0 4.0 0.00 0.00 0.00 72 1016.2
20260507115404 56 326 2.0 10.0 0.00 0.00 0.00 72 1016.1
20260507114504 56 323 3.0 10.0 0.00 0.00 0.00 72 1016.1
20260507113604 57 337 5.0 10.0 0.00 0.00 0.00 72 1016.0
20260507112704 57 347 4.0 10.0 0.00 0.00 0.00 72 1015.8
20260507111825 57 352 5.0 11.0 0.00 0.00 0.00 72 1015.7
20260507110903 57 349 5.0 11.0 0.00 0.00 0.00 71 1015.7
20260507110004 58 339 4.0 11.0 0.00 0.00 0.00 71 1015.6
20260507105403 57 338 4.0 11.0 0.00 0.00 0.00 71 1015.5
20260507104525 57 355 4.0 10.0 0.00 0.00 0.00 72 1015.4
20260507103604 57 29 2.0 8.0 0.00 0.00 0.00 72 1015.5
20260507102725 58 27 1.0 5.0 0.00 0.00 0.00 72 1015.4
20260507101804 58 42 4.0 11.0 0.00 0.00 0.00 71 1015.4
20260507100903 58 60 4.0 9.0 0.00 0.00 0.00 71 1015.5
20260507100004 58 57 3.0 9.0 0.00 0.00 0.00 70 1015.4
20260507095404 58 52 3.0 8.0 0.00 0.00 0.00 70 1015.4
20260507094525 59 34 2.0 8.0 0.00 0.00 0.00 70 1015.3
20260507093604 59 41 4.0 12.0 0.00 0.00 0.00 69 1015.3
20260507092704 59 15 4.0 12.0 0.00 0.00 0.00 69 1015.3
20260507091804 59 360 3.0 12.0 0.00 0.00 0.00 69 1015.3
20260507090904 60 55 1.0 5.0 0.00 0.00 0.00 69 1015.3
20260507090005 60 14 2.0 10.0 0.00 0.00 0.00 68 1015.4
20260507085404 60 353 4.0 12.0 0.00 0.00 0.00 68 1015.3
20260507084504 60 52 1.0 6.0 0.00 0.00 0.00 68 1015.2
20260507083605 61 279 2.0 6.0 0.00 0.00 0.00 68 1015.1
20260507082704 61 139 2.0 9.0 0.00 0.00 0.00 67 1015.1
20260507081804 61 72 1.0 4.0 0.00 0.00 0.00 67 1015.2
20260507080903 61 196 0.0 6.0 0.00 0.00 0.00 67 1015.2
20260507080004 61 184 2.0 8.0 0.00 0.00 0.00 67 1015.2
20260507075403 61 124 1.0 4.0 0.00 0.00 0.00 67 1015.3
20260507074504 62 114 1.0 5.0 0.00 0.00 0.00 67 1015.2
20260507073604 62 325 5.0 14.0 0.00 0.00 0.00 67 1015.1
20260507072704 62 333 6.0 15.0 0.00 0.00 0.00 68 1015.1
20260507071805 62 314 5.0 15.0 0.00 0.00 0.00 68 1015.0
20260507070904 62 317 7.0 19.0 0.00 0.00 0.00 68 1015.0
20260507070009 62 323 5.0 15.0 0.00 0.00 0.00 69 1015.1
20260507065404 62 329 6.0 14.0 0.00 0.00 0.00 69 1015.1
20260507064525 62 329 4.0 11.0 0.00 0.00 0.00 68 1015.1
20260507063604 62 309 6.0 14.0 0.00 0.00 0.00 68 1015.1
20260507062704 63 311 6.0 14.0 0.00 0.00 0.00 67 1015.1
20260507061804 63 317 5.0 12.0 0.00 0.00 0.00 67 1015.2
20260507060904 63 320 5.0 14.0 0.00 0.00 0.00 67 1015.3
20260507060004 63 301 6.0 18.0 0.00 0.00 0.00 67 1015.4
20260507055404 63 303 6.0 18.0 0.00 0.00 0.00 67 1015.4
20260507054504 63 311 7.0 16.0 0.00 0.00 0.00 66 1015.6
20260507053603 64 328 7.0 16.0 0.00 0.00 0.00 66 1015.6
20260507052704 64 317 5.0 15.0 0.00 0.00 0.00 65 1015.6
20260507051825 64 325 6.0 15.0 0.00 0.00 0.00 64 1015.7
20260507050904 65 337 6.0 18.0 0.00 0.00 0.00 63 1015.8
20260507050026 65 328 5.0 12.0 0.00 0.00 0.00 61 1015.7
20260507045404 65 319 4.0 11.0 0.00 0.00 0.00 59 1015.7
20260507044525 66 339 4.0 11.0 0.00 0.00 0.00 59 1015.7
20260507043626 66 343 3.0 10.0 0.00 0.00 0.00 56 1015.7
20260507042704 67 332 5.0 14.0 0.00 0.00 0.00 54 1015.7
20260507041825 67 331 6.0 16.0 0.00 0.00 0.00 51 1015.5
20260507040904 68 311 6.0 18.0 0.00 0.00 0.00 51 1015.4
20260507040004 68 320 7.0 21.0 0.00 0.00 0.00 49 1015.3
20260507035404 68 339 5.0 21.0 0.00 0.00 0.00 49 1015.2
20260507034504 68 294 3.0 10.0 0.00 0.00 0.00 50 1015.1
20260507033603 68 327 4.0 11.0 0.00 0.00 0.00 49 1015.1
20260507032725 69 299 5.0 14.0 0.00 0.00 0.00 48 1014.9
20260507031804 69 247 4.0 15.0 0.00 0.00 0.00 48 1014.7
20260507030904 70 254 3.0 12.0 0.00 0.00 0.00 47 1014.7
20260507030004 70 309 4.0 14.0 0.00 0.00 0.00 47 1014.7
20260507025404 70 286 4.0 12.0 0.00 0.00 0.00 47 1014.8
20260507024504 70 293 4.0 12.0 0.00 0.00 0.00 47 1014.7
20260507023624 71 298 6.0 15.0 0.00 0.00 0.00 46 1014.6
20260507022725 71 296 6.0 19.0 0.00 0.00 0.00 46 1014.5
20260507021804 70 276 8.0 22.0 0.00 0.00 0.00 47 1014.5
20260507020904 70 282 10.0 22.0 0.00 0.00 0.00 46 1014.5
20260507020004 70 289 9.0 24.0 0.00 0.00 0.00 46 1014.3
20260507015404 70 287 12.0 29.0 0.00 0.00 0.00 46 1014.2
20260507014504 71 286 11.0 26.0 0.00 0.00 0.00 46 1014.2
20260507013625 71 293 10.0 20.0 0.00 0.00 0.00 45 1014.1
20260507012704 72 294 9.0 20.0 0.00 0.00 0.00 45 1014.2
20260507011804 72 305 9.0 20.0 0.00 0.00 0.00 44 1014.2
20260507010004 72 321 8.0 21.0 0.00 0.00 0.00 44 1014.2
20260507005404 72 314 9.0 21.0 0.00 0.00 0.00 43 1014.3
20260507004504 73 314 7.0 19.0 0.00 0.00 0.00 43 1014.3
20260507003603 73 312 6.0 16.0 0.00 0.00 0.00 43 1014.2
20260507002704 73 313 10.0 24.0 0.00 0.00 0.00 42 1014.2
20260507001804 73 311 8.0 24.0 0.00 0.00 0.00 42 1014.0
20260507000904 73 302 8.0 21.0 0.00 0.00 0.00 41 1014.0
20260507000025 73 315 9.0 21.0 0.00 0.00 0.00 41 1013.9
20260506235403 73 323 10.0 21.0 0.00 0.00 0.00 40 1013.9
20260506234525 73 316 10.0 29.0 0.00 0.00 0.00 40 1013.8
20260506233604 74 321 10.0 29.0 0.00 0.00 0.00 40 1013.7
20260506232706 74 326 13.0 26.0 0.00 0.00 0.00 41 1013.6
20260506231825 75 323 12.0 25.0 0.00 0.00 0.00 41 1013.8
20260506230904 76 334 14.0 31.0 0.00 0.00 0.00 40 1013.7
20260506230004 76 326 13.0 29.0 0.00 0.00 0.00 40 1013.7
20260506225404 76 334 13.0 29.0 0.00 0.00 0.00 41 1013.7
20260506224504 75 323 14.0 28.0 0.00 0.00 0.00 42 1013.7
20260506223604 75 312 14.0 24.0 0.00 0.00 0.00 40 1013.8
20260506222704 74 307 12.0 35.0 0.00 0.00 0.00 41 1013.9
20260506221804 74 320 15.0 32.0 0.00 0.00 0.00 43 1014.0
20260506220926 75 312 13.0 32.0 0.00 0.00 0.00 42 1014.2
20260506220004 74 331 14.0 30.0 0.00 0.00 0.00 42 1014.2
20260506215403 74 338 13.0 30.0 0.00 0.00 0.00 42 1014.3
20260506214504 75 329 9.0 21.0 0.00 0.00 0.00 43 1014.3
20260506213604 76 349 11.0 25.0 0.00 0.00 0.00 42 1014.4
20260506212704 76 321 10.0 24.0 0.00 0.00 0.00 43 1014.4
20260506211804 76 349 10.0 20.0 0.00 0.00 0.00 43 1014.3
20260506210925 75 298 8.0 18.0 0.00 0.00 0.00 43 1014.1
20260506210025 75 309 13.0 26.0 0.00 0.00 0.00 44 1014.4
20260506205404 75 309 11.0 20.0 0.00 0.00 0.00 44 1014.4
20260506204504 75 310 12.0 22.0 0.00 0.00 0.00 45 1014.3
20260506203603 74 302 12.0 22.0 0.00 0.00 0.00 46 1014.7